VOLGA R/B, 44425

Orbit data source: Space-Track

VOLGA R/B, 44425 is space debris in SSO originally from a launch on Wed, 10 Jul 2019 UTC launched from the Plesetsk Missile And Space Complex (PKMTR). Debris objects in space refer to the collection of defunct objects orbiting the Earth. Examples of debris include non-operational satellites, rocket bodies, and fragments generated from explosions, collisions, or faulty payload assembly.

Not visible in the next 10 days
Identifier
44425, 2019-039E
Orbit
SSO
Last TLE update
6 hours ago
Origin
Manufacturer
TsSKB-Progress
Mission
Spacecraft
Bus & Motor
VOLGA, Unknown motor
Mass
~1,120 kg wet, 1,120 kg dry
Launch date (UTC)
2019-07-10 (6 years ago)
Launch vehicle
Unknown
Launch site
Plesetsk Missile And Space Complex (PKMTR)
Object type
Payload
Rocket body
Debris
Shape & HBR
Cyl, 3.2 m
Radar Cross Section
6.585 m², Large (>1 m²)

Expand to show TLE details & history

TLE from 6 hours ago
0 VOLGA R/B
1 44425U 19039E   25183.60377152  .00497047  13401-3  45086-3 0  9990
2 44425  97.4392 308.5118 0009197 227.0925 132.9588 16.12541012334698
Epoch: 2025-07-02T14:29Z
TLE epoch observation values (Epoch: 2025-07-02T14:29:25.859Z)
Latitude
-0.00007°
Longitude
170.27157°
Altitude
247.247 km
Speed
7.756 km/s
True Right ascension
20h 34m 02s
True Declination
0° 00' 00"
Sunlit
Object was in full shadow at epoch
Visualization orbit readout
Latitude
72.82873°
Longitude
15.41779°
Altitude
254.865 km
Speed
7.759 km/s
Apparent Right ascension
19h 38m 45s
Apparent Declination
34° 55' 52"
Sunlit
Object is in daylight
Visualization observer readout
Local Sidereal Time
08:37:10
Azimuth
12.298° NNE
Elevation
-13.95°
Doppler factor
1
Orbital elements
Apogee altitude
242.811 km
Perigee altitude
230.643 km
Semi-major axis
6,614.864 km
Eccentricity
0.00092
Inclination
97.4392°
RAAN
308.5118°
Arg. of periapsis
227.0925°
True anomaly
Unknown
Mean anomaly
132.9588°
Eccentric anomaly
Unknown
Mean motion
4.03424 °/min
Orbital period
89.24 mins
BSTAR
0.00045086
Loading maneuver chart data...
Loading SW <> Apogee altitude chart data...

VOLGA R/B Visibility

Observer location: undefined°, undefined°

VOLGA R/B is likely not visible in the next few days
Span
Click to sort rows by Start time (UTC) header in descending order
Start Az.
Max El. time (UTC)
Max El. Az.
Max El.
End time (UTC)
End Az.
|